User: anonymous   Login
Location: Unspecified
(0.0000°N, 0.0000°E)
Time: 11:52:22
(UTC+00:00)
Language:

COSMOS 2508 - Orbit

View from above orbital plane
View from above orbital plane
View from above satellite
View from above satellite

Ground track
Ground track

The orbit data is extracted from the following two-line orbital elements,

1 40921U 15050B   19049.78701196 +.00000009 +00000-0 -45986-5 0  9996
2 40921 082.4891 304.7437 0014530 092.8264 267.4475 12.42885287154510
Epoch (UTC): 18 February 2019 18:53:17
Eccentricity: 0.0014530
inclination: 82.4891°
perigee height: 1483 km
apogee height: 1506 km
right ascension of ascending node: 304.7437°
argument of perigee: 92.8264°
revolutions per day: 12.42885287
mean anomaly at epoch: 267.4475°
orbit number at epoch: 15451

The dashed part of the orbit path shows where the satellite is in the earth's shadow,  

DLR